This demonstration page uses our WeatherBlox Daily Observations layout. Learn more.

Left ArrowRight Arrow

Hourly Observations for May 10, 2015

Temp ( °F °C ) Dew Point ( °F °C ) Humidity (%) Winds ( mph kmh ) Pressure ( in mb ) Visibility ( mi km ) Precip ( " mm )
12:53 am 00:53 Clear 71 21.7 64 17.8 79 79 E 3 6 30.06 1018 10 16 0.00 0.00
1:53 am 01:53 Partly Cloudy 69 20.6 65 18.3 87 87 Calm 30.06 1018 10 16 0.00 0.00
2:53 am 02:53 Mostly Cloudy 70 21.1 64 17.8 82 82 E 3 6 30.06 1018 10 16 0.00 0.00
3:53 am 03:53 Clear 68 20 63 17.2 84 84 ENE 3 6 30.05 1018 10 16 0.00 0.00
4:53 am 04:53 Clear 65 18.3 62 16.7 90 90 Calm 30.05 1018 10 16 0.00 0.00
5:53 am 05:53 Clear 63 17.2 61 16.1 93 93 Calm 30.05 1018 9 14 0.00 0.00
6:53 am 06:53 Sunny 65 18.3 62 16.7 90 90 Calm 30.05 1018 9 14 0.00 0.00
7:53 am 07:53 Sunny 69 20.6 66 18.9 90 90 Calm 30.08 1019 8 13 0.00 0.00
8:53 am 08:53 Sunny 74 23.3 65 18.3 74 74 ESE 3 6 30.09 1019 10 16 0.00 0.00
9:53 am 09:53 Sunny 79 26.1 65 18.3 62 62 VRB 5 7 30.08 1019 10 16 0.00 0.00
10:53 am 10:53 Mostly Cloudy 79 26.1 64 17.8 60 60 VRB 3 6 30.07 1018 10 16 0.00 0.00
11:53 am 11:53 Mostly Cloudy 79 26.1 65 18.3 62 62 S 5 7 30.08 1019 10 16 0.00 0.00
12:53 pm 12:53 Mostly Sunny 81 27.2 64 17.8 57 57 SSW 9 15 30.07 1018 10 16 0.00 0.00
1:53 pm 13:53 Partly Cloudy 84 28.9 63 17.2 49 49 WSW 7 11 30.06 1018 10 16 0.00 0.00
2:53 pm 14:53 Sunny 84 28.9 62 16.7 48 48 VRB 7 11 30.03 1017 10 16 0.00 0.00
3:53 pm 15:53 Mostly Cloudy 86 30 63 17.2 46 46 VRB 6 9 30.01 1016 10 16 0.00 0.00
4:53 pm 16:53 Sunny 86 30 61 16.1 43 43 VRB 7 11 30.01 1016 10 16 0.00 0.00
5:53 pm 17:53 Partly Cloudy 83 28.3 59 15 44 44 SSW 8 13 30.02 1017 10 16 0.00 0.00
6:53 pm 18:53 Partly Cloudy 82 27.8 59 15 46 46 VRB 5 7 30.03 1017 10 16 0.00 0.00
7:53 pm 19:53 Sunny 80 26.7 62 16.7 54 54 SW 5 7 30.01 1016 10 16 0.00 0.00
8:53 pm 20:53 Mostly Cloudy 72 22.2 64 17.8 76 76 Calm 30.01 1016 10 16 0.00 0.00
9:53 pm 21:53 Clear 69 20.6 64 17.8 84 84 Calm 30.02 1017 10 16 0.00 0.03
10:53 pm 22:53 Partly Cloudy 67 19.4 63 17.2 87 87 Calm 30.04 1017 10 16 0.00 0.00
11:53 pm 23:53 Mostly Clear 68 20 64 17.8 87 87 Calm 30.04 1017 10 16 0.00 0.00

Powered by AerisWeather